Temp
-3 -3 -2 -3 -4 -5 -6 -6 -6 -7 -7 -8 -7 -6 -7 -6 -5 -4 -5 -5 -5 -5 -4 -4 -4 -4 -4 -5 -5 -5 -5 -5 -5 -5 -6 -6 -6 -6 -6 -6 -6 -6 -6 -6
-2 -2 -3 -4 -4 -5 -6 -6 -5 -7 -8 -7 -6 -6 -6 -6 -6 -6 -5 -4 -5 -4 -4 -4 -3 -4 -4 -4 -4 -5 -5 -5 -5 -5 -5 -5 -6 -6 -6 -6 -6 -6 -6 -6
-3 -3 -4 -4 -4 -4 -6 -6 -5 -7 -7 -6 -7 -7 -6 -7 -7 -7 -4 -4 -5 -5 -4 -4 -4 -4 -4 -4 -4 -4 -4 -4 -5 -5 -5 -5 -5 -6 -6 -6 -6 -6 -6 -6
-3 -3 -3 -3 -4 -4 -5 -6 -6 -7 -8 -7 -7 -7 -7 -7 -7 -6 -5 -6 -5 -5 -4 -4 -4 -3 -4 -4 -4 -4 -4 -4 -4 -4 -5 -5 -5 -5 -5 -6 -6 -6 -6 -7
-3 -3 -3 -3 -3 -5 -4 -6 -6 -7 -7 -8 -7 -7 -5 -7 -6 -5 -6 -6 -6 -5 -5 -5 -4 -4 -4 -4 -4 -4 -4 -4 -4 -4 -4 -4 -5 -5 -5 -6 -6 -6 -7 -7
-3 -3 -3 -3 -4 -5 -5 -6 -6 -6 -7 -8 -8 -7 -6 -7 -6 -6 -6 -6 -6 -6 -6 -5 -6 -5 -5 -5 -5 -5 -5 -5 -4 -4 -5 -4 -5 -5 -6 -6 -6 -6 -7 -7
-3 -3 -3 -3 -3 -3 -6 -6 -6 -6 -6 -6 -7 -7 -4 -6 -7 -6 -5 -5 -6 -5 -6 -6 -5 -6 -6 -6 -6 -6 -6 -5 -5 -5 -5 -5 -5 -5 -6 -6 -6 -7 -7 -6
-3 -3 -3 -3 -3 -3 -4 -6 -5 -4 -5 -5 -5 -6 -5 -5 -6 -6 -6 -6 -6 -6 -6 -6 -6 -7 -6 -7 -7 -7 -7 -6 -5 -5 -5 -5 -5 -5 -6 -6 -6 -7 -7 -7
-4 -3 -4 -4 -4 -4 -4 -4 -5 -6 -6 -6 -5 -5 -5 -6 -6 -6 -6 -6 -5 -6 -6 -6 -7 -7 -6 -6 -7 -7 -7 -6 -6 -5 -5 -6 -6 -6 -6 -6 -7 -7 -8 -7
-5 -4 -4 -4 -5 -5 -4 -5 -6 -6 -6 -6 -5 -6 -5 -5 -5 -6 -6 -6 -6 -6 -6 -5 -7 -7 -6 -6 -7 -7 -7 -7 -6 -5 -6 -6 -6 -6 -6 -7 -7 -7 -7 -7
-6 -5 -5 -5 -4 -5 -4 -4 -6 -6 -6 -6 -6 -4 -5 -5 -6 -6 -5 -5 -6 -5 -5 -4 -6 -6 -6 -6 -7 -7 -7 -7 -7 -6 -6 -6 -6 -6 -7 -7 -7 -8 -7 -8
-7 -7 -6 -5 -4 -5 -5 -5 -6 -5 -6 -7 -6 -4 -5 -5 -6 -6 -5 -6 -6 -6 -6 -6 -6 -7 -6 -6 -7 -7 -7 -7 -7 -6 -6 -5 -5 -6 -7 -7 -7 -8 -8 -8
-9 -7 -7 -6 -6 -6 -5 -6 -5 -6 -6 -5 -6 -2 -5 -5 -6 -7 -5 -6 -6 -7 -7 -7 -7 -7 -6 -7 -7 -7 -7 -7 -7 -7 -6 -6 -6 -7 -7 -7 -8 -8 -8 -8
-10 -9 -6 -5 -5 -7 -6 -6 -6 -6 -5 -4 -3 -4 -4 -5 -6 -6 -8 -8 -7 -8 -7 -7 -7 -7 -6 -7 -7 -7 -7 -7 -8 -7 -6 -6 -6 -7 -7 -8 -8 -8 -8 -8
-10 -10 -9 -7 -7 -8 -7 -7 -8 -7 -5 -6 -4 -5 -5 -5 -6 -7 -7 -7 -7 -8 -7 -7 -7 -7 -6 -6 -6 -6 -7 -7 -7 -7 -7 -7 -7 -8 -8 -8 -8 -8 -8 -8
-10 -10 -10 -9 -9 -9 -8 -8 -8 -8 -7 -6 -6 -4 -6 -7 -6 -7 -7 -8 -7 -7 -8 -8 -7 -7 -6 -6 -6 -6 -6 -7 -7 -7 -7 -7 -7 -7 -8 -8 -8 -8 -8 -8
-10 -10 -10 -9 -9 -10 -9 -6 -8 -8 -8 -8 -6 -4 -6 -7 -6 -6 -7 -8 -8 -7 -8 -8 -8 -8 -7 -7 -7 -6 -6 -7 -7 -7 -7 -7 -7 -7 -8 -8 -8 -8 -8 -8
-10 -11 -11 -11 -10 -10 -5 -7 -8 -9 -9 -8 -8 -7 -6 -6 -7 -6 -7 -7 -8 -5 -7 -9 -9 -9 -8 -7 -7 -7 -6 -6 -7 -8 -7 -8 -8 -7 -8 -8 -8 -8 -8 -9
-11 -12 -11 -11 -11 -10 -9 -7 -8 -9 -9 -9 -9 -9 -8 -8 -7 -7 -6 -7 -7 -7 -7 -8 -9 -8 -9 -9 -8 -8 -7 -6 -6 -7 -8 -8 -8 -8 -8 -8 -8 -8 -9 -9
-12 -13 -13 -12 -12 -10 -8 -9 -9 -9 -9 -9 -9 -9 -9 -6 -5 -6 -7 -7 -7 -8 -7 -8 -8 -8 -8 -9 -9 -8 -8 -7 -7 -7 -8 -8 -8 -8 -8 -9 -9 -9 -8 -9
-14 -14 -13 -12 -12 -10 -10 -10 -10 -10 -9 -9 -8 -8 -8 -8 -6 -6 -7 -7 -7 -7 -8 -8 -8 -8 -7 -8 -8 -8 -7 -7 -7 -8 -8 -8 -8 -9 -8 -9 -9 -8 -9 -9
-15 -14 -13 -13 -13 -12 -11 -11 -10 -10 -9 -9 -8 -8 -9 -8 -8 -8 -7 -7 -7 -7 -7 -8 -8 -9 -9 -9 -7 -8 -7 -7 -8 -8 -8 -8 -8 -9 -9 -9 -8 -9 -9 -9
-15 -13 -12 -12 -13 -13 -12 -11 -10 -10 -9 -9 -10 -9 -8 -8 -8 -8 -7 -6 -8 -9 -8 -7 -7 -8 -9 -9 -9 -8 -7 -8 -8 -8 -8 -8 -9 -9 -9 -8 -9 -9 -9 -9
-15 -13 -13 -12 -12 -10 -11 -11 -10 -8 -8 -9 -9 -9 -9 -9 -9 -8 -8 -8 -7 -9 -9 -9 -8 -9 -8 -9 -9 -9 -8 -8 -8 -8 -8 -9 -9 -9 -9 -9 -9 -9 -9 -9
-15 -14 -13 -12 -12 -11 -11 -10 -10 -10 -9 -8 -10 -9 -10 -9 -8 -8 -9 -9 -8 -9 -9 -9 -9 -9 -9 -9 -9 -9 -9 -8 -8 -8 -8 -9 -9 -9 -9 -9 -9 -9 -9 -9
-15 -14 -13 -11 -12 -11 -11 -10 -10 -11 -11 -10 -9 -9 -9 -9 -9 -10 -9 -8 -8 -9 -9 -10 -9 -10 -10 -10 -10 -9 -9 -9 -9 -8 -9 -9 -9 -9 -9 -10 -9 -10 -10 -10
Height
5862 5863 5867 5871 5874 5880 5883 5886 5887 5893 5899 5899 5898 5899 5901 5901 5901 5903 5905 5903 5904 5905 5906 5908 5911 5913 5915 5918 5920 5921 5924 5925 5925 5926 5927 5929 5929 5930 5932 5933 5933 5934 5935 5935
5858 5859 5864 5867 5869 5873 5878 5882 5881 5888 5895 5897 5895 5896 5898 5900 5903 5904 5905 5902 5903 5906 5906 5908 5911 5914 5915 5917 5919 5921 5923 5925 5925 5925 5926 5928 5929 5930 5931 5932 5933 5936 5935 5934
5854 5858 5858 5861 5864 5867 5872 5877 5879 5883 5887 5893 5892 5892 5896 5897 5900 5901 5899 5900 5902 5906 5908 5909 5910 5912 5914 5916 5917 5919 5921 5922 5924 5924 5925 5926 5927 5929 5930 5931 5932 5933 5933 5932
5850 5852 5852 5854 5857 5863 5866 5875 5880 5880 5882 5882 5886 5886 5888 5894 5894 5896 5892 5896 5901 5904 5909 5910 5911 5912 5913 5914 5915 5917 5918 5919 5920 5923 5924 5924 5926 5927 5928 5930 5931 5931 5931 5929
5848 5846 5848 5849 5851 5856 5865 5870 5875 5876 5878 5878 5880 5881 5886 5887 5887 5891 5894 5893 5899 5901 5904 5908 5910 5911 5912 5913 5914 5915 5916 5917 5917 5919 5920 5922 5923 5925 5927 5929 5929 5929 5928 5927
5840 5839 5840 5845 5848 5849 5859 5863 5868 5871 5872 5869 5873 5877 5879 5880 5881 5886 5889 5889 5896 5900 5903 5905 5906 5908 5909 5911 5911 5912 5913 5914 5914 5915 5917 5918 5919 5922 5924 5925 5925 5924 5923 5922
5834 5834 5836 5838 5841 5843 5847 5853 5857 5859 5857 5857 5868 5870 5871 5883 5885 5884 5886 5885 5891 5895 5899 5901 5903 5905 5906 5907 5908 5908 5909 5910 5912 5912 5914 5914 5915 5919 5920 5921 5922 5922 5920 5918
5822 5824 5830 5834 5833 5837 5837 5844 5843 5847 5851 5856 5862 5859 5865 5877 5881 5883 5882 5883 5885 5888 5893 5893 5899 5901 5903 5903 5904 5905 5904 5905 5907 5908 5908 5910 5912 5915 5916 5918 5918 5917 5915 5915
5814 5818 5824 5823 5828 5830 5833 5829 5844 5845 5848 5850 5854 5859 5866 5871 5876 5879 5878 5875 5878 5882 5882 5884 5891 5896 5899 5899 5900 5902 5901 5901 5902 5903 5903 5905 5908 5911 5912 5914 5914 5914 5912 5913
5804 5807 5814 5818 5821 5820 5822 5833 5833 5832 5835 5836 5845 5851 5857 5865 5870 5872 5875 5878 5877 5878 5879 5881 5883 5890 5894 5896 5896 5897 5898 5897 5897 5898 5898 5900 5902 5904 5908 5908 5908 5909 5909 5910
5794 5795 5803 5805 5805 5812 5816 5817 5821 5828 5828 5829 5835 5837 5852 5859 5866 5866 5868 5872 5874 5873 5875 5876 5878 5884 5890 5891 5892 5893 5894 5894 5894 5894 5895 5896 5897 5899 5902 5903 5903 5904 5907 5907
5779 5785 5785 5791 5798 5800 5807 5810 5815 5814 5821 5823 5828 5826 5847 5858 5860 5860 5863 5867 5869 5867 5866 5867 5871 5878 5884 5886 5887 5888 5890 5891 5891 5891 5892 5892 5892 5894 5897 5899 5901 5902 5902 5904
5771 5766 5772 5779 5784 5786 5790 5800 5804 5809 5815 5813 5818 5820 5837 5844 5848 5851 5847 5849 5855 5861 5862 5864 5868 5872 5876 5880 5882 5884 5885 5887 5888 5888 5888 5889 5888 5890 5893 5896 5897 5898 5898 5898
5747 5751 5751 5758 5773 5782 5782 5787 5794 5799 5799 5806 5804 5815 5825 5838 5841 5844 5846 5848 5854 5855 5858 5857 5860 5865 5869 5874 5877 5878 5880 5882 5884 5885 5886 5887 5886 5887 5889 5892 5893 5894 5894 5895
5727 5730 5740 5746 5755 5768 5773 5777 5782 5785 5792 5794 5806 5807 5816 5829 5832 5839 5842 5843 5847 5849 5850 5854 5856 5859 5866 5869 5870 5873 5875 5876 5879 5882 5883 5884 5884 5883 5884 5886 5888 5890 5890 5890
5707 5711 5723 5729 5740 5748 5758 5767 5773 5777 5783 5786 5793 5797 5804 5815 5824 5827 5834 5836 5838 5841 5843 5849 5852 5854 5858 5864 5867 5868 5869 5870 5872 5875 5879 5880 5880 5879 5880 5881 5882 5883 5883 5883
5688 5697 5705 5710 5724 5736 5744 5748 5760 5768 5774 5778 5779 5791 5798 5801 5812 5817 5822 5826 5826 5833 5836 5838 5843 5844 5847 5851 5856 5860 5863 5864 5866 5869 5872 5874 5875 5875 5875 5875 5876 5876 5876 5875
5675 5681 5688 5696 5711 5720 5731 5743 5751 5759 5766 5772 5774 5780 5785 5789 5799 5807 5810 5813 5809 5817 5822 5830 5834 5836 5839 5842 5844 5851 5854 5857 5859 5861 5865 5866 5868 5870 5869 5868 5869 5869 5868 5867
5666 5672 5678 5683 5693 5708 5720 5732 5743 5749 5756 5763 5764 5767 5772 5777 5785 5794 5801 5801 5802 5806 5813 5813 5823 5827 5828 5832 5837 5840 5843 5849 5851 5854 5857 5860 5861 5862 5862 5862 5861 5861 5859 5857
5658 5658 5663 5677 5683 5694 5712 5726 5729 5737 5744 5748 5752 5757 5761 5771 5776 5784 5788 5791 5793 5796 5801 5808 5813 5815 5816 5821 5826 5829 5834 5837 5840 5844 5849 5850 5852 5852 5853 5854 5854 5853 5850 5842
5633 5640 5649 5666 5677 5690 5700 5713 5720 5726 5733 5735 5743 5749 5754 5759 5765 5770 5776 5780 5783 5788 5788 5796 5797 5801 5806 5811 5813 5817 5824 5827 5832 5834 5837 5839 5841 5843 5845 5845 5842 5842 5842 5841
5609 5623 5645 5658 5671 5684 5689 5701 5710 5713 5717 5726 5733 5738 5744 5749 5754 5758 5762 5767 5774 5777 5776 5780 5787 5791 5797 5799 5804 5808 5812 5819 5819 5823 5826 5829 5832 5834 5835 5834 5832 5833 5833 5833
5618 5633 5640 5645 5662 5669 5678 5688 5694 5698 5709 5715 5723 5729 5735 5740 5745 5748 5751 5753 5755 5759 5765 5768 5774 5779 5782 5787 5791 5797 5802 5805 5808 5813 5816 5820 5823 5824 5824 5824 5824 5822 5823 5822
5612 5622 5630 5640 5652 5658 5667 5677 5684 5696 5699 5708 5713 5721 5726 5733 5735 5737 5739 5742 5745 5747 5748 5754 5759 5761 5768 5775 5780 5786 5792 5796 5798 5802 5806 5809 5810 5810 5815 5814 5814 5813 5812 5812
5606 5616 5628 5638 5649 5651 5659 5662 5665 5680 5689 5698 5701 5712 5717 5721 5722 5724 5725 5728 5732 5735 5735 5738 5743 5749 5753 5759 5766 5773 5778 5786 5789 5792 5792 5794 5796 5801 5803 5803 5804 5804 5804 5803
5603 5615 5626 5633 5634 5642 5646 5651 5655 5673 5675 5687 5699 5706 5707 5710 5711 5712 5715 5718 5718 5717 5708 5706 5721 5731 5741 5747 5752 5758 5763 5769 5776 5778 5780 5781 5788 5792 5793 5793 5793 5793 5793 5791
Wind_Speed
24 27 21 17 16 13 19 22 18 9 15 21 23 22 15 19 22 23 14 5 4 6 8 9 8 9 8 8 7 6 4 3 2 2 1 1 2 2 4 4 3 4 5 7
17 20 23 22 22 22 21 22 22 20 22 27 26 22 13 12 15 17 16 5 6 6 7 8 9 9 9 8 8 7 5 4 4 4 3 2 3 3 3 2 2 5 8 11
15 11 22 26 27 25 27 22 24 25 19 22 24 21 23 15 25 20 13 5 3 8 9 10 11 11 10 9 10 8 7 8 7 7 6 5 6 6 4 3 5 8 11 14
18 17 23 27 31 28 27 24 27 28 23 23 23 21 20 27 29 21 4 6 7 5 10 10 9 10 10 11 10 10 11 11 12 10 11 9 9 10 7 4 6 8 12 14
15 21 20 23 29 32 23 28 34 33 28 25 23 30 23 25 29 18 19 10 11 9 11 9 12 13 13 12 14 14 13 12 15 14 14 12 12 11 10 9 7 9 10 11
22 24 24 20 24 32 27 31 37 38 31 35 31 29 30 28 26 28 21 10 19 15 13 12 10 13 15 17 17 16 16 16 16 17 16 16 16 14 13 11 10 9 12 10
24 27 25 24 25 29 31 38 39 47 46 46 35 34 33 14 23 30 28 23 25 22 15 10 14 17 19 16 16 15 16 18 19 19 18 19 18 15 15 13 10 9 8 8
32 33 28 24 27 28 32 38 47 47 49 46 41 41 32 17 15 23 31 35 29 34 26 11 12 13 18 18 16 16 18 20 19 19 22 21 20 15 15 12 10 7 8 5
36 35 28 31 25 30 30 38 31 43 45 43 44 40 26 25 23 27 31 23 32 26 32 13 10 16 16 19 18 17 17 18 20 20 22 21 22 18 17 13 8 5 4 5
37 40 36 32 31 34 37 30 35 39 46 50 42 45 38 23 24 32 32 28 32 31 28 26 10 18 28 21 20 19 14 11 12 16 18 18 18 17 14 10 6 5 6 11
39 42 39 40 42 39 36 40 43 37 41 43 45 45 31 26 19 29 30 32 36 41 30 30 19 26 24 22 23 23 15 12 12 13 11 12 15 12 9 8 6 5 6 4
41 41 46 46 43 42 39 40 40 47 41 46 45 41 32 28 26 30 32 34 33 36 30 27 22 30 25 23 20 22 14 13 13 14 10 9 7 5 9 8 6 5 6 5
37 48 45 48 49 50 47 41 42 43 44 45 44 37 35 39 36 29 36 34 30 24 28 32 32 35 30 23 18 21 16 15 16 13 9 3 6 10 12 10 8 7 7 8
52 52 57 56 54 50 53 48 42 44 48 44 48 40 32 42 43 36 32 31 30 28 32 37 39 37 35 31 25 24 21 18 16 10 8 8 13 15 15 11 11 10 7 9
64 63 59 60 52 47 52 48 43 46 45 47 40 46 40 40 45 38 31 26 27 29 32 36 39 39 30 26 23 23 23 23 21 15 10 12 14 16 15 14 12 12 13 16
63 64 59 62 58 51 51 49 43 42 40 42 41 42 45 45 41 37 32 37 39 38 38 36 40 44 39 37 37 36 26 22 24 22 13 17 14 15 15 13 14 14 11 13
70 68 63 70 62 52 50 59 51 40 38 36 44 40 39 49 50 49 36 37 40 37 35 43 43 47 45 45 40 41 33 27 24 25 20 16 18 16 17 16 14 12 15 18
75 67 64 69 63 57 59 54 50 45 41 40 40 37 36 40 52 58 46 41 52 46 47 42 42 44 48 50 50 39 40 32 29 31 28 24 19 20 26 22 20 22 23 22
74 62 61 64 66 65 60 55 49 45 44 41 44 41 40 34 48 59 63 51 51 56 43 41 45 50 46 45 50 47 47 39 36 35 33 30 22 21 26 27 29 29 27 27
70 57 49 60 59 66 63 50 48 52 49 47 50 49 44 43 42 46 60 66 60 58 60 53 45 46 46 37 46 46 43 40 39 36 33 31 25 24 24 25 29 28 32 36
57 51 50 54 56 60 64 54 45 49 53 56 57 55 53 50 44 45 49 69 70 72 68 58 59 52 51 44 50 51 45 45 35 35 37 35 31 26 21 22 30 30 29 34
66 61 51 42 46 53 57 50 55 57 57 57 54 49 48 50 49 48 45 42 49 72 77 74 67 55 48 49 55 45 35 41 38 35 41 38 33 24 22 31 33 31 37 40
59 58 50 52 51 53 58 51 53 62 61 57 52 54 50 48 46 42 41 39 44 47 51 57 82 73 61 55 57 57 46 40 40 37 38 35 30 30 32 34 34 38 47 40
71 62 50 63 64 47 56 56 65 61 55 51 45 53 40 40 43 42 43 44 45 50 52 51 46 56 67 66 57 54 51 45 44 42 40 34 38 36 35 37 41 45 46 47
63 64 49 54 65 48 34 46 60 60 65 40 46 39 39 46 46 50 46 45 45 45 56 62 56 55 55 49 62 62 56 52 47 45 46 46 43 37 38 40 44 45 49 50
54 60 54 55 42 39 50 66 31 44 33 51 52 43 40 41 43 44 46 47 49 55 57 61 60 59 54 53 50 58 65 64 52 51 45 44 40 38 42 43 46 50 51 51
Wind_Direction
238 237 240 241 244 219 220 224 149 141 224 260 263 270 257 329 292 283 268 216 241 213 192 190 190 188 185 192 201 199 186 199 228 227 222 196 151 170 180 189 232 295 330 345
238 244 235 233 232 218 221 226 160 164 240 246 267 299 263 307 283 271 262 222 218 229 193 198 199 208 207 222 237 240 239 239 257 247 222 231 216 218 213 235 317 337 335 336
250 235 234 232 233 226 215 220 181 189 194 246 254 266 246 271 267 250 244 264 265 264 241 210 210 208 216 226 238 252 265 268 250 253 252 244 230 231 239 264 335 346 337 327
249 233 227 226 232 230 219 215 206 186 201 237 252 250 247 253 265 245 234 299 293 282 279 275 251 245 238 240 247 255 254 259 267 259 251 251 244 241 245 276 295 318 329 330
238 242 240 234 233 227 222 207 204 186 200 258 235 228 238 253 258 251 277 259 269 275 273 275 283 284 283 277 273 265 264 262 265 260 262 259 256 256 258 263 282 303 325 320
244 238 238 226 233 231 219 213 205 195 206 223 244 243 241 234 272 267 264 278 275 266 277 256 275 287 288 289 280 280 277 272 265 264 256 257 257 262 269 276 295 311 317 305
253 252 243 231 225 232 219 214 209 209 210 222 220 238 236 223 238 263 270 263 267 285 240 267 266 290 292 277 273 271 267 264 268 262 252 254 258 265 267 275 295 311 284 300
245 241 244 239 232 234 232 218 219 221 220 227 224 229 230 211 255 279 275 249 263 251 246 230 257 268 292 280 268 267 266 264 262 269 265 255 256 258 265 270 282 273 284 303
251 248 234 234 225 229 235 236 240 229 231 231 230 230 231 242 249 258 270 277 291 282 267 214 258 282 293 269 270 265 262 263 263 264 270 263 257 259 264 270 267 229 253 7
243 247 234 237 235 230 227 239 228 229 231 235 230 221 228 213 247 253 260 261 268 269 270 242 226 272 288 284 261 254 247 264 266 266 265 263 258 255 261 264 228 210 291 322
237 240 240 236 231 227 226 223 226 234 236 235 237 239 217 205 237 257 252 262 267 275 274 276 283 267 296 276 258 259 250 254 273 273 278 273 261 256 248 210 212 271 311 323
245 235 232 238 237 234 229 232 230 233 235 237 239 246 211 206 223 244 259 262 264 269 281 283 270 259 271 263 253 255 249 252 270 280 284 294 266 202 195 190 219 260 286 313
247 246 237 226 226 231 233 228 231 233 240 243 239 258 228 201 221 241 233 236 230 237 267 257 242 254 258 257 249 245 249 255 262 283 277 247 172 173 184 189 213 231 266 276
213 232 236 234 232 224 233 234 229 232 234 237 244 250 232 201 220 234 246 269 242 236 231 238 244 245 251 256 243 241 248 254 265 276 253 200 179 183 187 187 200 208 243 257
212 220 233 238 236 219 227 224 236 235 237 235 238 241 239 208 216 234 245 261 256 213 229 224 234 244 243 250 252 246 246 254 257 263 245 202 194 192 200 198 199 224 263 282
206 212 225 230 230 227 217 216 219 243 242 241 241 237 231 230 212 222 240 246 251 223 225 236 240 247 250 255 263 262 257 258 253 257 255 227 215 212 205 228 244 262 290 312
202 208 210 224 221 223 209 220 213 217 243 250 239 235 236 228 214 217 224 231 248 241 226 232 234 248 254 259 262 264 265 263 260 262 251 246 235 220 219 228 246 265 292 303
200 205 207 217 217 214 228 217 211 212 223 237 253 245 239 237 218 213 218 233 237 233 220 223 242 245 252 259 265 261 263 260 256 256 253 254 250 239 232 245 264 277 287 293
199 205 208 211 217 212 217 220 208 208 213 218 228 232 233 234 219 213 218 227 239 249 248 207 216 234 232 246 254 257 261 258 259 250 247 251 254 242 238 249 263 272 276 275
199 200 205 208 216 212 220 213 209 210 216 210 218 224 229 242 240 231 221 223 230 238 241 232 239 229 225 239 243 252 250 252 259 246 243 250 247 245 242 247 261 270 272 286
203 207 202 205 209 216 218 213 206 210 218 222 226 231 237 240 247 248 232 225 226 231 236 237 245 241 242 236 240 242 249 255 248 240 237 242 246 249 257 261 267 267 278 278
208 199 192 193 210 215 215 211 208 215 221 227 231 226 230 238 242 248 249 245 237 236 235 236 237 238 239 244 249 252 241 240 236 237 236 240 250 257 266 260 260 270 283 281
210 196 186 188 197 209 208 209 208 214 219 223 233 229 235 242 241 240 245 247 251 249 241 244 240 239 237 241 245 247 249 239 235 239 241 245 248 251 257 261 272 274 285 292
204 195 201 199 200 214 208 212 217 219 222 232 230 237 225 238 239 242 250 257 257 246 248 246 244 240 233 236 237 233 243 232 236 239 242 243 243 246 260 266 270 276 285 290
205 204 195 190 191 215 205 213 208 220 225 231 212 220 225 236 245 251 249 252 253 252 254 248 246 238 232 230 233 237 235 237 235 235 237 235 242 250 258 262 269 273 278 283
203 206 196 183 193 200 202 214 215 220 223 223 232 235 233 239 245 253 260 264 258 254 248 234 239 235 237 233 238 241 238 238 236 235 238 236 243 251 255 258 258 266 272 277